Hayward, WI

7:36 AM CST on November 15, 2019 (GMT -0600)
Sawyer County

Weather History for KHYR - September, 2019

Change the Weather History Date:

Wednesday, September 18, 2019

  Actual Average Record
Temperature  
Mean Temperature 72 °F -  
Max Temperature 80 °F 84 °F 84 °F (1998)
Min Temperature 66 °F 47 °F 28 °F (2012)
Cooling Degree Days 8    
Growing Degree Days 22 (Base 50)    
Moisture  
Dew Point 64 °F    
Average Humidity 80    
Maximum Humidity 94    
Minimum Humidity 60    
Precipitation  
Precipitation 0.01 in - - ()
Sea Level Pressure  
Sea Level Pressure 29.92 in    
Wind  
Wind Speed 10 mph (South)    
Max Wind Speed 23 mph    
Max Gust Speed 36 mph    
Visibility 8 miles    
Events Rain    
Averages and records for this station are not official NWS values.
T = Trace of Precipitation, MM = Missing Value Source: NWS Daily Summary

Daily Weather History Graph

Daily Weather History Graph

Search for Another Location

Airport or City:

Astronomy

Sep. 18, 2019 Rise Set
Actual Time 6:47 AM CDT 7:11 PM CDT
Civil Twilight 6:17 AM CDT 7:41 PM CDT
Nautical Twilight 5:42 AM CDT 8:16 PM CDT
Astronomical Twilight 5:05 AM CDT 8:53 PM CDT
Moon 9:32 PM CDT (9/18) 11:03 AM CDT (9/18)
Length of Visible Light 13h 24m
Length of Day
12h 24m
Waning Gibbous, 82% of the Moon is Illuminated
Sep 18
Waning Gibbous
Sep 21
Last Quarter
Sep 28
New
Oct 5
First Quarter
Oct 13
Full

Hourly Weather History & Observations

Time (CDT) Temp. Dew Point Humidity Pressure Visibility Wind Dir Wind Speed Gust Speed Precip Events Conditions
12:53 AM 68.0 °F 61.0 °F 78% 29.96 in 10.0 mi South 9.2 mph - N/A   Clear
1:53 AM 68.0 °F 62.1 °F 81% 29.95 in 10.0 mi South 9.2 mph - N/A   Clear
2:53 AM 66.9 °F 63.0 °F 87% 29.94 in 8.0 mi South 8.1 mph - N/A   Clear
3:53 AM 66.9 °F 63.0 °F 87% 29.92 in 7.0 mi South 6.9 mph - N/A   Partly Cloudy
4:51 AM 66.2 °F 64.4 °F 94% 29.92 in 6.0 mi South 6.9 mph - N/A   Mostly Cloudy
4:53 AM 66.9 °F 64.0 °F 90% 29.91 in 6.0 mi SSE 6.9 mph - N/A   Mostly Cloudy
5:53 AM 68.0 °F 64.0 °F 87% 29.92 in 6.0 mi South 9.2 mph - N/A   Scattered Clouds
6:53 AM 69.1 °F 64.9 °F 87% 29.95 in 5.0 mi South 9.2 mph - N/A   Partly Cloudy
7:36 AM 70.0 °F 64.9 °F 84% 29.99 in 5.0 mi South 9.2 mph - N/A   Haze
7:53 AM 70.0 °F 64.9 °F 84% 29.97 in 5.0 mi South 6.9 mph - N/A   Haze
8:53 AM 70.0 °F 66.0 °F 87% 29.97 in 5.0 mi South 9.2 mph - N/A   Overcast
9:49 AM 69.8 °F 66.2 °F 88% 29.95 in 2.5 mi South 8.1 mph - 0.01 in Rain Light Rain
9:53 AM 70.0 °F 66.0 °F 87% 29.94 in 3.0 mi South 9.2 mph - 0.01 in Rain Light Rain
10:45 AM 70.0 °F 66.0 °F 87% 29.94 in 5.0 mi South 11.5 mph 19.6 mph 0.00 in   Mostly Cloudy
10:53 AM 70.0 °F 66.0 °F 87% 29.93 in 5.0 mi South 11.5 mph - 0.00 in   Scattered Clouds
11:53 AM 72.0 °F 66.0 °F 81% 29.89 in 8.0 mi South 12.7 mph - N/A   Clear
12:53 PM 73.0 °F 64.9 °F 76% 29.89 in 10.0 mi SSW 13.8 mph 26.5 mph N/A   Clear
1:53 PM 75.9 °F 64.0 °F 67% 29.88 in 10.0 mi SSW 19.6 mph 31.1 mph N/A   Clear
2:53 PM 77.0 °F 63.0 °F 62% 29.87 in 10.0 mi SSW 23.0 mph 35.7 mph N/A   Clear
3:53 PM 79.0 °F 64.0 °F 60% 29.84 in 10.0 mi South 17.3 mph 27.6 mph N/A   Clear
4:53 PM 79.0 °F 64.0 °F 60% 29.85 in 10.0 mi SSW 20.7 mph 31.1 mph N/A   Clear
5:53 PM 77.0 °F 64.0 °F 64% 29.86 in 10.0 mi SSW 13.8 mph - N/A   Overcast
6:53 PM 75.9 °F 64.0 °F 67% 29.88 in 10.0 mi SSW 11.5 mph - N/A   Overcast
7:53 PM 72.0 °F 64.0 °F 76% 29.90 in 10.0 mi South 9.2 mph - N/A   Clear
8:53 PM 71.1 °F 64.0 °F 78% 29.90 in 10.0 mi South 9.2 mph - N/A   Clear
9:53 PM 71.1 °F 63.0 °F 75% 29.92 in 10.0 mi SW 6.9 mph - N/A   Scattered Clouds
10:53 PM 71.1 °F 64.0 °F 78% 29.93 in 10.0 mi SSW 10.4 mph - N/A   Partly Cloudy
11:53 PM 66.9 °F 63.0 °F 87% 29.94 in 10.0 mi SSW 5.8 mph - N/A   Clear